Lid_Strength_Index
1 0 0 -0 -0 -0 -1 -1 -1 -1 -1 -1 -1 -1 -1 0 3 6 9 6 2 -0 0 6 6 6 8 9 8 8 11 13 11 11 11 11 12 10 9 8 7 7 6 5 3
1 1 1 0 -0 -0 -1 -1 -1 -1 -1 -1 -1 -1 -1 -1 5 7 4 1 0 1 6 8 8 7 9 10 9 10 11 11 9 10 10 11 11 10 9 10 8 7 6 4 3
2 1 1 1 -0 -0 -0 -1 -1 -1 -1 -2 -1 -1 -1 0 5 8 1 1 1 2 4 6 6 6 10 10 11 10 11 10 10 8 9 10 11 10 11 11 9 8 6 5 5
1 1 1 1 0 -0 -0 -0 -1 -1 -1 -1 -1 -1 -1 2 11 4 1 2 1 3 5 8 8 10 11 11 10 12 10 9 9 10 9 10 9 10 10 10 8 8 5 4 5
1 1 1 1 1 0 0 -0 -0 -0 -1 -1 -1 -1 2 6 6 3 0 3 4 4 7 9 10 11 12 11 11 12 11 10 10 10 11 10 10 10 9 8 8 7 5 5 5
-1 -1 0 1 1 1 0 0 -0 0 -0 -1 -1 -1 3 8 2 2 1 4 5 5 6 8 10 9 11 12 12 11 12 12 11 11 11 10 11 10 10 9 8 6 5 5 5
-2 -1 -1 -0 -0 -1 -1 -0 0 0 -0 -1 -1 0 4 6 2 2 2 2 4 4 6 6 6 9 10 12 10 11 13 13 12 11 11 10 12 11 9 9 9 7 6 5 5
-2 -2 -2 -1 -0 -1 -1 -1 -2 -0 -1 -1 -1 2 6 1 1 2 2 2 2 3 4 4 5 8 10 10 12 13 15 17 14 13 11 11 15 11 11 11 10 10 9 6 5
-2 -2 -2 -1 -1 -2 -1 -2 -1 -1 -1 -1 2 4 8 1 3 1 2 3 3 3 3 3 6 9 10 14 16 16 19 18 15 13 14 13 14 12 11 12 12 11 11 10 9
-2 -2 -1 -1 -1 -2 -1 -1 -1 -1 -0 -0 1 7 5 6 3 2 2 2 4 5 5 6 9 12 13 15 19 17 18 17 17 15 15 15 14 12 11 11 11 11 11 11 11
-2 -1 -1 -1 -1 -1 -0 1 4 5 4 7 6 7 5 3 2 3 2 3 4 7 11 9 13 15 14 13 13 15 16 17 16 15 16 16 16 14 13 12 11 11 11 11 11
-2 -1 -1 -1 -1 -1 0 4 4 4 9 4 4 5 4 3 7 5 2 7 8 11 9 11 16 13 11 11 13 15 16 17 14 14 15 16 16 14 14 14 13 12 12 11 11
-2 -1 -1 -1 -1 1 2 3 -0 1 8 7 5 6 5 4 8 7 4 6 9 11 11 13 12 10 11 12 14 16 16 17 16 14 15 17 18 17 14 15 14 13 12 11 12
-2 -2 -2 -1 2 3 4 0 -0 1 14 11 9 6 5 5 9 4 4 7 9 11 10 12 9 11 12 14 13 16 14 14 14 16 20 17 23 18 16 14 14 12 12 13 14
-2 -2 -2 -1 3 4 3 -0 1 4 20 10 9 3 5 8 7 7 4 6 11 11 10 12 12 12 12 12 12 15 12 13 14 17 18 19 20 19 17 16 14 14 13 14 13
-2 -2 -1 1 3 3 1 1 3 14 23 12 8 9 9 9 8 7 7 5 7 10 10 11 8 9 10 9 10 11 12 13 14 16 23 19 19 21 18 16 15 14 13 13 13
-2 -2 1 1 4 2 2 6 13 19 12 13 12 10 11 11 10 10 10 11 13 15 15 12 12 10 9 11 10 12 14 20 20 20 23 19 19 19 16 15 15 13 12 13 13
-2 -1 -0 1 0 2 5 11 21 17 16 10 10 10 12 11 12 11 12 13 10 12 14 16 18 11 9 11 13 12 12 17 21 21 22 18 20 18 15 14 13 13 12 11 12
-1 1 2 2 1 2 8 16 16 14 11 11 11 13 13 11 11 12 13 13 11 10 14 16 16 11 10 9 10 13 15 12 16 23 21 19 17 15 14 13 12 12 11 12 11
2 3 3 2 2 5 12 15 14 10 10 9 14 12 15 13 13 13 13 10 11 9 9 12 16 12 11 9 9 11 10 16 16 23 25 19 19 18 16 14 13 13 12 12 11
3 6 3 2 4 11 16 21 12 8 8 10 13 13 12 13 12 13 13 10 10 9 9 11 13 13 12 14 14 13 14 14 14 15 20 22 20 16 14 13 13 13 12 12 11
6 9 2 4 12 16 13 13 8 10 8 9 10 11 12 11 13 13 13 11 9 9 12 10 12 17 14 11 10 11 13 13 17 18 16 16 17 12 12 12 12 13 12 12 11
7 6 2 6 16 13 10 10 9 10 10 10 10 10 9 11 14 12 12 9 9 9 11 10 13 17 16 14 11 12 12 12 12 13 17 19 17 11 11 13 12 11 12 11 10
9 13 8 10 12 14 14 13 13 8 10 9 10 10 11 12 10 13 11 9 8 9 7 8 12 15 19 16 13 14 13 12 13 17 16 16 15 12 11 12 11 11 10 10 11
11 13 12 14 12 16 14 12 13 14 9 9 10 11 11 14 13 14 10 9 9 8 9 12 19 15 15 13 13 13 13 13 14 14 16 15 15 13 13 12 12 12 11 11 11
11 11 11 11 10 13 12 12 13 12 11 13 12 10 10 16 12 13 11 12 12 10 10 11 19 18 20 15 13 14 13 13 13 13 13 14 15 12 12 13 13 12 12 12 11
9 8 9 9 12 14 14 12 11 10 9 9 10 10 11 10 9 9 9 9 10 12 12 12 18 22 24 18 21 23 19 14 14 13 14 16 14 12 12 12 12 12 12 12 11